EZY323A EGPH-EGAA

Flight info

Callsign EZY323A
Flight time 0h 36m
Altitude 22000
Route GOSAM P600 BLACA DCT BELZU
Aircraft A20N/M-SDE2E3FGHIJ1RWXY/LB1

Departure

Time 2026-04-21 09:17
Airport Edinburgh Airport (EGPH)

Arrival

Time 2026-04-21 09:53
Airport Belfast International Airport (EGAA)
Time Latitude Longitude Altitude Speed Heading
2026-04-21 08:51 55.94770 -3.35551 140 ft 0 kts 209°
2026-04-21 09:06 55.94778 -3.35543 141 ft 2 kts 211°
2026-04-21 09:06 55.94791 -3.35530 141 ft 2 kts 208°
2026-04-21 09:07 55.94804 -3.35518 141 ft 2 kts 211°
2026-04-21 09:07 55.94813 -3.35497 141 ft 2 kts 256°
2026-04-21 09:07 55.94812 -3.35471 141 ft 1 kts 292°
2026-04-21 09:07 55.94811 -3.35465 141 ft 1 kts 300°
2026-04-21 09:08 55.94822 -3.35503 141 ft 3 kts 300°
2026-04-21 09:08 55.94825 -3.35514 141 ft 0 kts 299°
2026-04-21 09:10 55.94826 -3.35517 141 ft 1 kts 299°
2026-04-21 09:10 55.94844 -3.35572 141 ft 7 kts 301°
2026-04-21 09:10 55.94870 -3.35656 141 ft 7 kts 298°
2026-04-21 09:10 55.94895 -3.35739 141 ft 6 kts 298°
2026-04-21 09:11 55.94918 -3.35812 141 ft 7 kts 305°
2026-04-21 09:11 55.94974 -3.35862 141 ft 10 kts
2026-04-21 09:11 55.95038 -3.35849 141 ft 8 kts 339°
2026-04-21 09:11 55.95073 -3.35927 141 ft 10 kts 299°
2026-04-21 09:12 55.95103 -3.36052 141 ft 11 kts 289°
2026-04-21 09:12 55.95129 -3.36186 141 ft 11 kts 287°
2026-04-21 09:12 55.95110 -3.36353 141 ft 17 kts 238°
2026-04-21 09:12 55.95040 -3.36558 141 ft 19 kts 239°
2026-04-21 09:13 55.94968 -3.36768 141 ft 19 kts 239°
2026-04-21 09:13 55.94898 -3.36977 141 ft 19 kts 239°
2026-04-21 09:13 55.94827 -3.37187 141 ft 19 kts 239°
2026-04-21 09:13 55.94756 -3.37399 141 ft 19 kts 239°
2026-04-21 09:14 55.94685 -3.37608 141 ft 19 kts 239°
2026-04-21 09:14 55.94614 -3.37816 141 ft 19 kts 239°
2026-04-21 09:14 55.94544 -3.38025 141 ft 19 kts 239°
2026-04-21 09:14 55.94472 -3.38236 141 ft 19 kts 239°
2026-04-21 09:15 55.94400 -3.38443 141 ft 19 kts 239°
2026-04-21 09:15 55.94338 -3.38627 141 ft 15 kts 238°
2026-04-21 09:15 55.94291 -3.38766 141 ft 10 kts 242°
2026-04-21 09:15 55.94308 -3.38883 141 ft 11 kts 323°
2026-04-21 09:16 55.94370 -3.38946 141 ft 10 kts 332°
2026-04-21 09:16 55.94443 -3.38886 141 ft 21 kts 56°
2026-04-21 09:16 55.94650 -3.38274 141 ft 95 kts 59°
2026-04-21 09:16 55.95102 -3.36952 282 ft 141 kts 59°
2026-04-21 09:17 55.95569 -3.35572 1055 ft 133 kts 59°
2026-04-21 09:17 55.96090 -3.34226 1737 ft 135 kts 47°
2026-04-21 09:17 55.96767 -3.33033 2281 ft 145 kts 42°
2026-04-21 09:17 55.97545 -3.31765 2734 ft 161 kts 41°
2026-04-21 09:18 55.98428 -3.30347 3218 ft 178 kts 40°
2026-04-21 09:18 55.99410 -3.28838 3626 ft 201 kts 32°
2026-04-21 09:18 56.00789 -3.28012 4129 ft 220 kts
2026-04-21 09:18 56.02302 -3.28672 4666 ft 242 kts 330°
2026-04-21 09:19 56.03441 -3.30975 5372 ft 257 kts 296°
2026-04-21 09:19 56.03675 -3.34125 6284 ft 269 kts 264°
2026-04-21 09:19 56.03140 -3.37299 7405 ft 268 kts 253°
2026-04-21 09:19 56.02493 -3.40392 8427 ft 267 kts 254°
2026-04-21 09:20 56.01913 -3.43481 9410 ft 267 kts 255°
2026-04-21 09:20 56.01398 -3.46625 10374 ft 267 kts 256°
2026-04-21 09:20 56.00919 -3.49826 11232 ft 271 kts 256°
2026-04-21 09:20 56.00434 -3.53168 11726 ft 288 kts 256°
2026-04-21 09:21 55.99921 -3.56733 12150 ft 306 kts 256°
2026-04-21 09:21 55.99375 -3.60536 12541 ft 324 kts 256°
2026-04-21 09:21 55.98799 -3.64545 12876 ft 342 kts 256°
2026-04-21 09:21 55.98198 -3.68744 13254 ft 357 kts 255°
2026-04-21 09:22 55.97581 -3.73054 13947 ft 361 kts 255°
2026-04-21 09:22 55.96957 -3.77402 14765 ft 361 kts 255°
2026-04-21 09:22 55.96326 -3.81772 15529 ft 362 kts 255°
2026-04-21 09:22 55.95696 -3.86121 16237 ft 365 kts 255°
2026-04-21 09:23 55.95053 -3.90536 16944 ft 366 kts 255°
2026-04-21 09:23 55.94408 -3.94962 17627 ft 368 kts 255°
2026-04-21 09:23 55.93822 -3.99357 18276 ft 370 kts 257°
2026-04-21 09:23 55.93241 -4.03851 18907 ft 372 kts 251°
2026-04-21 09:24 55.92055 -4.07968 19508 ft 376 kts 236°
2026-04-21 09:24 55.90221 -4.11310 20113 ft 382 kts 220°
2026-04-21 09:24 55.87898 -4.13603 20682 ft 392 kts 205°
2026-04-21 09:24 55.85256 -4.14922 21253 ft 397 kts 200°
2026-04-21 09:25 55.82648 -4.16524 21774 ft 395 kts 208°
2026-04-21 09:25 55.80230 -4.18711 22278 ft 393 kts 214°
2026-04-21 09:25 55.77903 -4.21265 22549 ft 392 kts 218°
2026-04-21 09:25 55.75636 -4.24026 22570 ft 400 kts 219°
2026-04-21 09:26 55.73351 -4.26892 22572 ft 413 kts 219°
2026-04-21 09:26 55.70974 -4.29868 22571 ft 417 kts 219°
2026-04-21 09:26 55.68597 -4.32827 22571 ft 418 kts 219°
2026-04-21 09:26 55.66244 -4.35745 22571 ft 418 kts 219°
2026-04-21 09:27 55.63832 -4.38727 22567 ft 418 kts 219°
2026-04-21 09:27 55.61475 -4.41634 22561 ft 418 kts 219°
2026-04-21 09:27 55.59078 -4.44585 22553 ft 419 kts 219°
2026-04-21 09:27 55.56696 -4.47513 22545 ft 419 kts 219°
2026-04-21 09:28 55.54277 -4.50482 22537 ft 419 kts 219°
2026-04-21 09:28 55.51901 -4.53394 22531 ft 419 kts 219°
2026-04-21 09:28 55.49497 -4.56335 22526 ft 419 kts 219°
2026-04-21 09:28 55.47120 -4.59237 22522 ft 419 kts 219°
2026-04-21 09:29 55.44741 -4.62139 22520 ft 419 kts 219°
2026-04-21 09:29 55.42346 -4.65053 22519 ft 419 kts 218°
2026-04-21 09:29 55.39885 -4.68042 22519 ft 419 kts 218°
2026-04-21 09:29 55.37467 -4.70976 22519 ft 419 kts 218°
2026-04-21 09:30 55.35037 -4.73922 22518 ft 419 kts 218°
2026-04-21 09:30 55.32625 -4.76722 22518 ft 420 kts 216°
2026-04-21 09:30 55.30091 -4.79321 22517 ft 421 kts 212°
2026-04-21 09:30 55.27529 -4.81621 22513 ft 403 kts 211°
2026-04-21 09:31 55.25049 -4.83773 22517 ft 396 kts 211°
2026-04-21 09:31 55.22612 -4.85895 22518 ft 395 kts 211°
2026-04-21 09:31 55.20142 -4.88059 22518 ft 395 kts 211°
2026-04-21 09:31 55.17701 -4.90203 22518 ft 395 kts 210°
2026-04-21 09:32 55.15264 -4.92347 22518 ft 394 kts 210°
2026-04-21 09:32 55.12803 -4.94512 22518 ft 394 kts 210°
2026-04-21 09:32 55.10371 -4.96652 22518 ft 394 kts 210°
2026-04-21 09:32 55.07919 -4.98807 22518 ft 394 kts 210°
2026-04-21 09:33 55.05481 -5.00947 22518 ft 394 kts 210°
2026-04-21 09:33 55.03060 -5.03069 22487 ft 392 kts 210°
2026-04-21 09:33 55.00617 -5.05203 21961 ft 389 kts 210°
2026-04-21 09:33 54.98245 -5.07272 21397 ft 383 kts 210°
2026-04-21 09:34 54.95860 -5.09351 21034 ft 381 kts 210°
2026-04-21 09:34 54.93498 -5.11411 20579 ft 378 kts 210°
2026-04-21 09:34 54.91213 -5.13512 20037 ft 372 kts 216°
2026-04-21 09:34 54.89277 -5.16421 19453 ft 364 kts 230°
2026-04-21 09:35 54.87888 -5.20112 18833 ft 361 kts 244°
2026-04-21 09:35 54.87063 -5.24215 17985 ft 365 kts 252°
2026-04-21 09:35 54.86372 -5.28510 16827 ft 373 kts 253°
2026-04-21 09:35 54.85695 -5.32825 15863 ft 375 kts 253°
2026-04-21 09:36 54.85007 -5.37214 15044 ft 373 kts 253°
2026-04-21 09:36 54.84350 -5.41400 14319 ft 363 kts 253°
2026-04-21 09:36 54.83712 -5.45460 13730 ft 335 kts 253°
2026-04-21 09:36 54.83127 -5.49169 13251 ft 310 kts 253°
2026-04-21 09:37 54.82576 -5.52653 12835 ft 288 kts 253°
2026-04-21 09:37 54.82058 -5.55906 12453 ft 276 kts 253°
2026-04-21 09:37 54.81554 -5.59053 12117 ft 272 kts 253°
2026-04-21 09:37 54.81057 -5.62163 11962 ft 261 kts 253°
2026-04-21 09:38 54.80593 -5.65062 11835 ft 250 kts 252°
2026-04-21 09:38 54.80152 -5.67824 11675 ft 242 kts 252°
2026-04-21 09:38 54.79705 -5.70610 11498 ft 234 kts 252°
2026-04-21 09:38 54.79277 -5.73272 11329 ft 226 kts 251°
2026-04-21 09:39 54.78861 -5.75861 11171 ft 218 kts 251°
2026-04-21 09:39 54.78458 -5.78357 11030 ft 217 kts 251°
2026-04-21 09:39 54.78048 -5.80885 10894 ft 217 kts 251°
2026-04-21 09:39 54.77639 -5.83406 10767 ft 218 kts 251°
2026-04-21 09:40 54.77233 -5.85912 10651 ft 218 kts 251°
2026-04-21 09:40 54.76821 -5.88451 10541 ft 218 kts 251°
2026-04-21 09:40 54.76409 -5.90977 10314 ft 219 kts 251°
2026-04-21 09:40 54.75996 -5.93519 10020 ft 218 kts 250°
2026-04-21 09:41 54.75584 -5.96054 9731 ft 218 kts 250°
2026-04-21 09:41 54.75178 -5.98544 9450 ft 218 kts 250°
2026-04-21 09:41 54.74762 -6.01087 9168 ft 219 kts 250°
2026-04-21 09:41 54.74348 -6.03618 8887 ft 220 kts 250°
2026-04-21 09:42 54.73926 -6.06188 8606 ft 220 kts 250°
2026-04-21 09:42 54.73515 -6.08689 8341 ft 219 kts 250°
2026-04-21 09:42 54.73100 -6.11217 8069 ft 218 kts 250°
2026-04-21 09:42 54.72684 -6.13743 7797 ft 218 kts 249°
2026-04-21 09:43 54.72263 -6.16296 7515 ft 220 kts 249°
2026-04-21 09:43 54.71843 -6.18838 7237 ft 220 kts 249°
2026-04-21 09:43 54.71424 -6.21370 6964 ft 220 kts 249°
2026-04-21 09:43 54.71006 -6.23895 6691 ft 220 kts 249°
2026-04-21 09:44 54.70581 -6.26452 6416 ft 220 kts 249°
2026-04-21 09:44 54.70158 -6.28997 6144 ft 220 kts 250°
2026-04-21 09:44 54.69733 -6.31552 5871 ft 221 kts 250°
2026-04-21 09:44 54.69312 -6.34076 5604 ft 221 kts 250°
2026-04-21 09:45 54.68886 -6.36631 5334 ft 221 kts 250°
2026-04-21 09:45 54.68457 -6.39192 5064 ft 221 kts 250°
2026-04-21 09:45 54.68033 -6.41726 4798 ft 221 kts 250°
2026-04-21 09:45 54.67600 -6.44304 4536 ft 220 kts 250°
2026-04-21 09:46 54.67175 -6.46839 4448 ft 221 kts 250°
2026-04-21 09:46 54.66744 -6.49411 4364 ft 221 kts 250°
2026-04-21 09:46 54.66266 -6.51928 4261 ft 219 kts 238°
2026-04-21 09:46 54.65255 -6.53719 4147 ft 208 kts 201°
2026-04-21 09:47 54.63885 -6.54157 3915 ft 199 kts 168°
2026-04-21 09:47 54.62605 -6.53382 3657 ft 193 kts 152°
2026-04-21 09:47 54.61423 -6.52376 3445 ft 188 kts 152°
2026-04-21 09:47 54.60272 -6.51401 3249 ft 180 kts 152°
2026-04-21 09:48 54.59304 -6.50149 2954 ft 173 kts 122°
2026-04-21 09:48 54.59047 -6.48257 2892 ft 156 kts 89°
2026-04-21 09:48 54.59231 -6.46493 2820 ft 142 kts 77°
2026-04-21 09:48 54.59540 -6.44962 2731 ft 134 kts 73°
2026-04-21 09:49 54.59896 -6.43452 2666 ft 134 kts 71°
2026-04-21 09:49 54.60266 -6.41987 2571 ft 135 kts 70°
2026-04-21 09:49 54.60652 -6.40512 2384 ft 134 kts 69°
2026-04-21 09:49 54.61042 -6.39046 2202 ft 133 kts 69°
2026-04-21 09:50 54.61428 -6.37607 2028 ft 133 kts 68°
2026-04-21 09:50 54.61556 -6.37128 1970 ft 132 kts 68°
2026-04-21 09:50 54.62581 -6.33312 1533 ft 127 kts 68°
2026-04-21 09:51 54.62946 -6.31954 1325 ft 121 kts 68°
2026-04-21 09:51 54.63295 -6.30653 1184 ft 121 kts 68°
2026-04-21 09:51 54.63649 -6.29331 1018 ft 120 kts 67°
2026-04-21 09:51 54.64003 -6.28017 860 ft 120 kts 67°
2026-04-21 09:52 54.64354 -6.26713 705 ft 120 kts 67°
2026-04-21 09:52 54.64703 -6.25415 542 ft 119 kts 66°
2026-04-21 09:52 54.65053 -6.24115 373 ft 118 kts 66°
2026-04-21 09:52 54.65402 -6.22880 278 ft 109 kts 66°
2026-04-21 09:53 54.65661 -6.21901 277 ft 65 kts 64°
2026-04-21 09:53 54.65820 -6.21312 277 ft 50 kts 65°
2026-04-21 09:53 54.65958 -6.20798 277 ft 43 kts 65°
2026-04-21 09:53 54.66076 -6.20357 277 ft 38 kts 64°
2026-04-21 09:54 54.66182 -6.19966 277 ft 33 kts 65°
2026-04-21 09:54 54.66249 -6.19718 277 ft 14 kts 59°
2026-04-21 09:54 54.66298 -6.19661 277 ft 9 kts 348°
2026-04-21 09:54 54.66348 -6.19701 277 ft 0 kts 330°
2026-04-21 09:56 54.66360 -6.19714 277 ft 9 kts 327°
2026-04-21 09:56 54.66394 -6.19821 277 ft 11 kts 273°
2026-04-21 09:56 54.66369 -6.19953 277 ft 12 kts 245°
2026-04-21 09:57 54.66332 -6.20091 277 ft 13 kts 245°
2026-04-21 09:57 54.66291 -6.20238 277 ft 13 kts 244°
2026-04-21 09:57 54.66248 -6.20392 277 ft 14 kts 244°
2026-04-21 09:57 54.66206 -6.20556 277 ft 15 kts 248°
2026-04-21 09:58 54.66162 -6.20728 277 ft 15 kts 245°
2026-04-21 09:58 54.66115 -6.20902 277 ft 16 kts 246°
2026-04-21 09:58 54.66066 -6.21083 277 ft 16 kts 244°
2026-04-21 09:58 54.66016 -6.21267 277 ft 17 kts 245°
2026-04-21 09:59 54.66009 -6.21408 277 ft 11 kts 305°
2026-04-21 09:59 54.66063 -6.21465 277 ft 6 kts 335°
2026-04-21 09:59 54.66088 -6.21486 277 ft 0 kts 335°